Regional Weather Roundup
Issued by NWS Midland/Odessa, TX

Skip options and go directly to product.
Home | Oldest Version | Previous Version | Current Version | All | Graphics & Text | Save Text | Print | Product List | Glossary On

Skip product version selection by date and time.   
101
ASUS44 KMAF 242302
RWRMAF
MIDLAND AREA WEATHER ROUNDUP
NATIONAL WEATHER SERVICE MIDLAND TX
500 PM CST MON NOV 24 2014

...IN SOUTHWEST TEXAS AND SOUTHEAST NEW MEXICO...

CITY           SKY/WX    TMP DP  RH WIND       PRES   REMARKS
ALPINE         CLEAR     54   0  11 W8        30.11S
ANDREWS        FAIR      54   8  15 CALM      30.03S
ARTESIA        NOT AVBL
BIG SPRING     CLEAR     56  25  29 CALM      30.07R
CARLSBAD       CLEAR     58   4  11 SE9       29.99S
DRYDEN           N/A     63   9  12 NW9       30.03R
FORT STOCKTON  PTCLDY    56   8  14 N8        30.05S
GUAD PASS      NOT AVBL
HOBBS          CLEAR     54   1  12 W14       30.02R
MARFA          CLEAR     52   1  12 W13       30.09S
MIDLAND AIRPK  CLEAR     55  24  30 SW5       30.05R
MIDLAND INTL   CLEAR     56  21  25 CALM      30.03S
ODESSA         CLEAR     56   3  11 NW9       30.03S
PECOS          CLEAR     58  10  15 E7        30.03S
PRESIDIO       FAIR      61   5  10 W9        30.06S
SEMINOLE       FAIR      54   8  15 CALM      30.03R
SNYDER         CLEAR     54  24  32 CALM      30.05R
WINK           CLEAR     58  -4   8 NW7       30.02S
$$
...OTHER STATIONS IN TEXAS...

CITY           SKY/WX    TMP DP  RH WIND       PRES   REMARKS
ABILENE        CLEAR     56  24  29 S7        30.05R
AMARILLO       MOCLDY    46  11  24 NW5       30.04R
AUSTIN         PTCLDY    60  28  29 NE12      30.05S
BROWNSVILLE    CLEAR     63  46  54 N9G18     30.02R
CORPUS CHRISTI MOCLDY    65  37  35 N13       30.02S
DALLAS FTW     PTCLDY    58  22  24 W6        30.04S
DEL RIO        CLEAR     65  24  21 N9        30.04R
EL PASO        MOSUNNY   56  -6   8 W13G18    30.06F
HOUSTON INT    MOCLDY    61  34  36 N9        30.03R
LUBBOCK        MOCLDY    52  12  20 W6        30.01R
SAN ANGELO     CLEAR     59  19  21 W9        30.04R
SAN ANTONIO    PTCLDY    64  25  22 N12       30.05R
WACO           PTCLDY    60  27  28 N7        30.06S
WICHITA FALLS  NOT AVBL
$$
...OTHER LOCATIONS IN NEW MEXICO...

CITY           SKY/WX    TMP DP  RH WIND       PRES   REMARKS
ALAMAGORDO     MOSUNNY   52  -2  11 N10G16    30.07S
ALBUQUERQUE    PTCLDY    44   5  20 NW22G32   30.12R WCI  35
CANNON AFB     MOCLDY    47   4  17 N8        30.02R
CLOVIS         MOCLDY    46   5  18 N14       30.03R
HOLLOMAN AFB   MOSUNNY   52  -1  11 N7        30.05F
ROSWELL        MOCLDY    56   4  12 NW18G32   30.02R
RUIDOSO        CLEAR     37   0  20 N15G26    30.07R WCI  28
SANTA FE       MOCLDY    37   6  27 N6        30.07R WCI  32
TRUTH OR CONSE SUNNY     53  -4   9 NW18G28   30.05R
TUCUMCARI      CLEAR     47  11  23 CALM      30.02R
$$

USA.gov is the U.S. government's official web portal to all federal, state and local government web resources and services.